Date String (YYYY-MM-DD hh:mm:ss) UTC,Instrument flags,absolute air pressure of the measurement (hPa),sample flow rate (lpm),inlet stack bypass flow (lpm),air temperature of the measurement (°C),ambient temperature measured by the external sensor (°C),aerosol sample conditioner tube jacket temperature (°C),OPC LED temperature (°C),internal box temperature (°C),relative humidity of the measurement (%),span deviation,mass concentration of particles derived from Lorenz-Mie calculation of OPC scattering (μg/m³),mass concentration of particles derived from Lorenz-Mie calculation of OPC scattering (μg/m³),mass concentration of particles derived from Lorenz-Mie calculation of OPC scattering (μg/m³)
DateTimeUTC,F1_M11,P_M11,Q1_M11,Q2_M11,T1_M11,T2_M11,T3_M11,T4_M11,T5_M11,U1_M11,ZSPAN_M11,X0_M11,X2_M11,X1_M11
2023-06-13 02:00:00,SystemResetWarning,0830.3,4.98,000.00,030.4,028.8,000.0,038.9,031.9,26.9,0000.0,0008.35,0003.33,0002.62
2023-06-13 02:01:00,SystemResetWarning,0830.4,5.00,000.00,030.4,028.8,000.0,038.9,031.9,27.0,0000.0,0008.44,0003.36,0002.65
2023-06-13 02:02:00,SystemResetWarning,0830.4,5.02,000.00,030.4,028.8,000.0,038.9,031.9,26.9,0000.0,0009.07,0003.36,0002.70
2023-06-13 02:03:00,SystemResetWarning,0830.4,5.00,000.00,030.4,028.8,000.0,038.9,031.9,27.0,0000.0,0009.18,0003.35,0002.71
2023-06-13 02:04:00,SystemResetWarning,0830.4,4.98,000.00,030.4,028.8,000.0,038.9,031.9,27.0,0000.0,0009.31,0003.39,0002.72
2023-06-13 02:05:00,SystemResetWarning,0830.4,5.00,000.00,030.4,028.8,000.0,038.9,031.9,26.9,0000.0,0008.73,0003.42,0002.74
2023-06-13 02:06:00,SystemResetWarning,0830.4,5.00,000.00,030.4,028.8,000.0,038.9,031.9,26.9,0000.0,0007.65,0003.44,0002.75
2023-06-13 02:07:00,SystemResetWarning,0830.5,5.00,000.00,030.4,028.8,000.0,038.9,031.9,27.2,0000.0,0007.71,0003.45,0002.77
2023-06-13 02:08:00,SystemResetWarning,0830.4,5.01,000.00,030.4,028.8,000.0,038.9,031.9,27.2,0000.0,0007.88,0003.45,0002.77
2023-06-13 02:09:00,SystemResetWarning,0830.5,5.00,000.00,030.4,028.8,000.0,038.9,031.9,27.3,0000.0,0007.86,0003.45,0002.77
2023-06-13 02:10:00,SystemResetWarning,0830.7,5.00,000.00,030.4,028.8,000.0,038.9,031.9,27.3,0000.0,0007.76,0003.43,0002.77
2023-06-13 02:11:00,SystemResetWarning,0830.6,4.99,000.00,030.4,028.8,000.0,038.9,031.9,27.4,0000.0,0007.58,0003.38,0002.74
2023-06-13 02:12:00,SystemResetWarning,0830.6,5.00,000.00,030.4,028.6,000.0,038.9,031.9,27.4,0000.0,0007.51,0003.33,0002.69
2023-06-13 02:13:00,SystemResetWarning,0830.6,5.00,000.00,030.4,026.6,000.0,038.9,031.8,27.2,0000.0,0006.95,0003.35,0002.65
2023-06-13 02:14:00,SystemResetWarning,0830.4,5.00,000.00,030.4,025.2,000.0,038.8,031.8,27.2,0000.0,0007.62,0003.36,0002.62
2023-06-13 02:15:00,SystemResetWarning,0830.6,5.00,000.00,030.3,025.1,000.0,038.8,031.5,27.5,0000.0,0007.81,0003.32,0002.59
2023-06-13 02:16:00,SystemResetWarning,0830.6,5.01,000.00,030.1,025.4,000.0,038.7,031.2,27.6,0000.0,0007.84,0003.27,0002.55
2023-06-13 02:17:00,SystemResetWarning,0830.5,5.01,000.00,030.0,025.9,000.0,038.7,031.2,27.9,0000.0,0007.88,0003.24,0002.52
2023-06-13 02:18:00,SystemResetWarning,0830.6,4.99,000.00,030.0,026.3,000.0,038.7,031.2,28.1,0000.0,0007.86,0003.21,0002.48
2023-06-13 02:19:00,SystemResetWarning,0830.6,5.00,000.00,030.0,026.7,000.0,038.7,031.2,28.2,0000.0,0007.79,0003.24,0002.46
2023-06-13 02:20:00,SystemResetWarning,0830.6,5.00,000.00,029.9,027.0,000.0,038.7,031.3,28.2,0000.0,0007.83,0003.26,0002.44
2023-06-13 02:21:00,SystemResetWarning,0830.7,5.01,000.00,029.9,027.2,000.0,038.6,031.3,28.1,0000.0,0007.91,0003.29,0002.43
2023-06-13 02:22:00,SystemResetWarning,0830.5,5.00,000.00,029.9,027.5,000.0,038.6,031.3,28.1,0000.0,0007.91,0003.31,0002.43
2023-06-13 02:23:00,SystemResetWarning,0830.6,4.99,000.00,029.9,027.6,000.0,038.6,031.3,28.1,0000.0,0007.90,0003.35,0002.45
2023-06-13 02:24:00,SystemResetWarning,0830.6,5.00,000.00,029.9,027.7,000.0,038.6,031.4,28.1,0000.0,0007.70,0003.32,0002.44
2023-06-13 02:25:00,SystemResetWarning,0830.6,5.01,000.00,029.9,027.8,000.0,038.6,031.4,28.0,0000.0,0006.83,0003.31,0002.43
2023-06-13 02:26:00,SystemResetWarning,0830.6,5.00,000.00,029.9,027.9,000.0,038.5,031.4,28.1,0000.0,0006.20,0003.31,0002.42
2023-06-13 02:27:00,SystemResetWarning,0830.6,5.01,000.00,029.9,028.0,000.0,038.5,031.4,28.0,0000.0,0006.11,0003.35,0002.39
2023-06-13 02:28:00,SystemResetWarning,0830.7,4.99,000.00,029.9,028.1,000.0,038.5,031.4,27.9,0000.0,0006.66,0003.35,0002.36
2023-06-13 02:29:00,SystemResetWarning,0830.6,5.00,000.00,029.9,028.1,000.0,038.5,031.4,28.0,0000.0,0006.59,0003.31,0002.31
2023-06-13 02:30:00,SystemResetWarning,0830.7,5.00,000.00,029.9,028.1,000.0,038.5,031.4,28.0,0000.0,0006.84,0003.27,0002.29
2023-06-13 02:31:00,SystemResetWarning,0830.6,5.00,000.00,029.9,028.2,000.0,038.5,031.5,27.9,0000.0,0006.64,0003.23,0002.27
2023-06-13 02:32:00,SystemResetWarning,0830.7,5.00,000.00,029.9,028.2,000.0,038.5,031.5,27.9,0000.0,0006.52,0003.19,0002.24
2023-06-13 02:33:00,SystemResetWarning,0830.7,5.01,000.00,029.9,028.2,000.0,038.5,031.5,28.0,0000.0,0006.57,0003.18,0002.21
2023-06-13 02:34:00,SystemResetWarning,0830.8,4.99,000.00,029.9,028.3,000.0,038.5,031.5,28.0,0000.0,0006.46,0003.15,0002.20
2023-06-13 02:35:00,SystemResetWarning,0830.8,5.00,000.00,029.9,028.3,000.0,038.5,031.5,28.0,0000.0,0006.25,0003.11,0002.17
2023-06-13 02:36:00,SystemResetWarning,0830.9,5.00,000.00,029.9,028.3,000.0,038.5,031.5,27.9,0000.0,0006.54,0003.08,0002.15
2023-06-13 02:37:00,SystemResetWarning,0830.8,5.00,000.00,029.9,028.3,000.0,038.5,031.5,28.0,0000.0,0006.67,0002.99,0002.13
2023-06-13 02:38:00,SystemResetWarning,0830.9,5.00,000.00,029.9,028.3,000.0,038.5,031.5,28.1,0000.0,0006.73,0002.94,0002.12
2023-06-13 02:39:00,SystemResetWarning,0830.8,5.01,000.00,029.9,028.4,000.0,038.5,031.5,27.9,0000.0,0006.09,0002.92,0002.13
2023-06-13 02:40:00,SystemResetWarning,0830.9,5.00,000.00,030.0,028.4,000.0,038.5,031.5,27.9,0000.0,0006.06,0002.91,0002.12
2023-06-13 02:41:00,SystemResetWarning,0830.9,4.99,000.00,030.0,028.4,000.0,038.5,031.5,27.8,0000.0,0005.45,0002.81,0002.07
2023-06-13 02:42:00,SystemResetWarning,0830.9,4.99,000.00,030.0,028.4,000.0,038.5,031.5,27.8,0000.0,0005.74,0002.79,0002.05
2023-06-13 02:43:00,SystemResetWarning,0830.9,5.01,000.00,030.0,028.4,000.0,038.5,031.5,27.7,0000.0,0006.29,0002.80,0002.04
2023-06-13 02:44:00,SystemResetWarning,0830.9,5.01,000.00,030.0,028.4,000.0,038.5,031.5,27.6,0000.0,0006.26,0002.78,0002.04
2023-06-13 02:45:00,SystemResetWarning,0830.9,4.99,000.00,030.0,028.4,000.0,038.5,031.5,27.3,0000.0,0006.22,0002.73,0002.01
2023-06-13 02:46:00,SystemResetWarning,0830.9,4.99,000.00,030.0,028.4,000.0,038.6,031.5,27.2,0000.0,0006.46,0002.71,0001.99
2023-06-13 02:47:00,SystemResetWarning,0830.8,5.01,000.00,030.0,028.4,000.0,038.6,031.5,26.8,0000.0,0006.27,0002.68,0001.96
2023-06-13 02:48:00,SystemResetWarning,0830.8,5.00,000.00,030.0,028.4,000.0,038.6,031.6,26.8,0000.0,0005.77,0002.70,0001.94
2023-06-13 02:49:00,SystemResetWarning,0830.9,4.99,000.00,030.0,028.4,000.0,038.6,031.6,26.9,0000.0,0005.63,0002.68,0001.92
2023-06-13 02:50:00,SystemResetWarning,0830.9,5.01,000.00,030.0,028.4,000.0,038.6,031.6,26.9,0000.0,0005.61,0002.65,0001.91
2023-06-13 02:51:00,SystemResetWarning,0830.9,5.00,000.00,030.0,028.4,000.0,038.6,031.6,26.9,0000.0,0005.46,0002.61,0001.91
2023-06-13 02:52:00,SystemResetWarning,0830.9,4.99,000.00,030.0,028.4,000.0,038.6,031.6,27.0,0000.0,0005.51,0002.68,0001.92
2023-06-13 02:53:00,SystemResetWarning,0830.8,5.00,000.00,030.0,028.5,000.0,038.6,031.6,27.2,0000.0,0005.42,0002.67,0001.93
2023-06-13 02:54:00,SystemResetWarning,0830.8,5.01,000.00,030.0,028.5,000.0,038.6,031.6,27.1,0000.0,0004.87,0002.67,0001.93
2023-06-13 02:55:00,SystemResetWarning,0830.8,5.01,000.00,030.0,028.5,000.0,038.6,031.6,27.2,0000.0,0004.96,0002.66,0001.91
2023-06-13 02:56:00,SystemResetWarning,0830.8,4.99,000.00,030.0,028.5,000.0,038.6,031.6,27.2,0000.0,0005.07,0002.67,0001.88
2023-06-13 02:57:00,SystemResetWarning,0830.8,4.98,000.00,030.0,028.5,000.0,038.6,031.5,27.1,0000.0,0005.21,0002.69,0001.89
2023-06-13 02:58:00,SystemResetWarning,0830.7,5.02,000.00,030.1,028.5,000.0,038.6,031.6,27.0,0000.0,0007.42,0002.76,0001.91
2023-06-13 02:59:00,SystemResetWarning,0830.7,5.00,000.00,030.1,028.5,000.0,038.6,031.6,27.0,0000.0,0007.49,0002.80,0001.91
